User: anonymous   Login
Location: Arbon
(43.0005°N, 0.7472°E)
Time: 18:58:30
(UTC+00:00)
Language:

GEOS 3 Rocket - Orbit

View from above orbital plane
View from above orbital plane
View from above satellite
View from above satellite

Ground track
Ground track

The orbit data is extracted from the following two-line orbital elements,

1  7735U 75027B   20295.18772746 -.00000145 +00000-0 +14189-4 0  9991
2  7735 114.9771 334.2066 0055346 275.9348 083.5427 14.24618538364238
Epoch (UTC): 21 October 2020 04:30:19
Eccentricity: 0.0055346
inclination: 114.9771°
perigee height: 770 km
apogee height: 849 km
right ascension of ascending node: 334.2066°
argument of perigee: 275.9348°
revolutions per day: 14.24618538
mean anomaly at epoch: 83.5427°
orbit number at epoch: 36423

The dashed part of the orbit path shows where the satellite is in the earth's shadow,  

DLR